Location: Caltech
(34.1382°N, 118.1253°W)
Time: 00:05:34
(UTC-07:00)

ASTRO E2 - Visible Passes

Search period start: 29 August 2016 00:00
Search period end: 08 September 2016 00:00
Orbit: 517 x 524 km, 31.4° (Epoch: 27 August)

Date Brightness Start Highest point End Pass type
(mag) Time Alt. Az. Time Alt. Az. Time Alt. Az.
30 Aug 5.4 05:47:10 10° SSE 05:48:01 11° SSE 05:48:52 10° SE visible
31 Aug 5.2 05:30:01 10° S 05:31:49 13° SSE 05:33:38 10° SE visible
01 Sep 5.0 05:13:19 10° S 05:15:37 15° SSE 05:17:58 10° ESE visible
02 Sep 4.7 04:58:13 16° S 04:59:25 18° SSE 05:02:09 10° ESE visible
03 Sep 4.5 04:43:04 20° SSE 04:43:13 20° SSE 04:46:14 10° ESE visible
04 Sep 4.6 04:27:52 22° SE 04:27:52 22° SE 04:30:16 10° ESE visible
05 Sep 4.9 04:12:39 19° ESE 04:12:39 19° ESE 04:14:16 10° ESE visible
05 Sep 3.1 05:47:38 12° WSW 05:51:10 54° S 05:55:06 10° E visible
06 Sep 5.4 03:57:25 14° ESE 03:57:25 14° ESE 03:58:13 10° E visible
06 Sep 3.0 05:32:25 20° WSW 05:35:02 56° S 05:38:58 10° E visible
07 Sep 2.9 05:17:11 31° WSW 05:18:53 58° S 05:22:50 10° E visible
